Location: Rowland
(34.5359°N, 79.2929°W)
Time: 14:01:22
(UTC+00:00)

SR - Pass Details

Date: 05 October 2022
Orbit: 577 x 875 km, 66.7° (Epoch: 28 November)

Event Time Altitude Azimuth Distance (km) Brightness Sun altitude
Rises 01:32:57 0° 215° (SW) 3,391 ? -32.6°
Reaches altitude 10° 01:35:25 10° 219° (SW) 2,483 ? -33.0°
Enters shadow 01:38:39 34° 233° (SW) 1,403 ? -33.7°
Maximum altitude 01:41:09 60° 299° (WNW) 991 - -34.1°
Drops below altitude 10° 01:46:59 10° 19° (NNE) 2,522 - -35.3°
Sets 01:49:30 0° 23° (NNE) 3,448 - -35.7°
